User: anonymous   Login
Location: Unspecified
(0.0000°N, 0.0000°E)
Time: 18:55:05
(UTC+00:00)
Language:

CHUBUSAT 1 - Orbit

View from above orbital plane
View from above orbital plane
View from above satellite
View from above satellite

Ground track
Ground track

The orbit data is extracted from the following two-line orbital elements,

1 40300U 14070C   17145.85958289 +.00001203 +00000-0 +57419-4 0  9997
2 40300 097.3959 226.1615 0020406 175.6369 321.7566 15.20808626141399
Epoch (UTC): 25 May 2017 20:37:47
Eccentricity: 0.0020406
inclination: 97.3959°
perigee height: 489 km
apogee height: 517 km
right ascension of ascending node: 226.1615°
argument of perigee: 175.6369°
revolutions per day: 15.20808626
mean anomaly at epoch: 321.7566°
orbit number at epoch: 14139

The dashed part of the orbit path shows where the satellite is in the earth's shadow,  

DLR